Location: Bastelaar
(51.0950°N, 3.8602°E)
Time: 17:28:24
(UTC+00:00)

Cosmos 2278 Rocket - Pass Details

Date: 18 November 2025
Orbit: 841 x 843 km, 71.0° (Epoch: 10 December)

Event Time Altitude Azimuth Distance (km) Brightness Sun altitude
Rises 17:35:48 0° 205° (SSW) 3,386 5.9 -15.9°
Reaches altitude 10° 17:38:14 10° 205° (SSW) 2,455 5.1 -16.3°
Maximum altitude 17:43:52 85° 119° (ESE) 852 2.1 -17.1°
Enters shadow 17:48:36 15° 31° (NNE) 2,110 3.9 -17.9°
